Location: Nitra
(0.0000°N, 18.0833°E)
Time: 19:21:19
(UTC+02:00)

A-11 Canister half - Pass Details

Date: 04 April 2023
Orbit: 1526 x 1682 km, 47.3° (Epoch: 08 June)

Event Time Altitude Azimuth Distance (km) Brightness Sun altitude
Rises 21:28:28 0° 341° (NNW) 4,788 11.9 -39.2°
Reaches altitude 10° 21:32:16 10° 353° (N) 3,779 11.1 -40.1°
Enters shadow 21:34:59 18° 6° (N) 3,164 10.6 -40.8°
Maximum altitude 21:40:01 28° 48° (NE) 2,604 - -42.1°
Drops below altitude 10° 21:47:36 10° 103° (ESE) 3,705 - -43.9°
Sets 21:51:13 0° 114° (ESE) 4,679 - -44.8°
